Location: Florida Caverns State Park
(30.8073°N, 85.2161°W)
Time: 09:32:30
(UTC-04:00)

N. Korean satellite - Visible Passes

Search period start: 20 October 2019 00:00
Search period end: 30 October 2019 00:00
Orbit: 455 x 508 km, 97.2° (Epoch: 19 October)

Date Brightness Start Highest point End Pass type
(mag) Time Alt. Az. Time Alt. Az. Time Alt. Az.
20 Oct 8.1 07:09:51 10° NNE 07:13:20 42° E 07:16:50 10° S visible
21 Oct 9.8 06:45:20 10° NE 06:47:59 19° E 06:50:38 10° SE visible
22 Oct 10.5 19:58:32 10° WSW 19:59:25 11° W 20:00:18 10° WNW visible
23 Oct 9.2 19:31:08 10° SSW 19:33:59 25° W 19:36:52 10° NW visible
24 Oct 8.7 07:02:10 10° NNE 07:05:30 33° E 07:08:52 10° SSE visible
25 Oct 10.1 06:37:56 10° ENE 06:40:07 15° E 06:42:19 10° SE visible
26 Oct 10.0 19:49:36 10° SW 19:51:29 14° W 19:53:23 10° WNW visible
27 Oct 7.3 07:19:19 10° NNE 07:22:58 61° E 07:26:38 10° S visible
27 Oct 8.6 19:22:58 10° SSW 19:26:04 32° W 19:29:13 10° NNW visible
28 Oct 9.2 06:54:29 10° NE 06:57:38 26° E 07:00:46 10° SSE visible
29 Oct 10.3 06:30:45 10° ENE 06:32:13 12° E 06:33:39 10° ESE visible
